owner,sensor,date,latitude,longitude,vertical_datum,wind_speed,wind_to_direction,wind_speed_of_gust,qcFlag 
COMPS,ioos:station:USF.COMPS:CAM:1,2014-11-01T00:00:00Z,27.7650,-82.6490,10.0,2.85,274.27,4.11,'1111122,1111122,1111122' 
COMPS,ioos:station:USF.COMPS:CAM:1,2014-11-01T00:06:00Z,27.7650,-82.6490,10.0,2.15,269.52,3.62,'1111122,1111122,1111122' 
COMPS,ioos:station:USF.COMPS:CAM:1,2014-11-01T00:12:00Z,27.7650,-82.6490,10.0,2.59,274.08,3.82,'1111122,1111122,1111122' 
COMPS,ioos:station:USF.COMPS:CAM:1,2014-11-01T00:18:00Z,27.7650,-82.6490,10.0,2.6,271.05,4.01,'1111122,1111122,1111122' 
COMPS,ioos:station:USF.COMPS:CAM:1,2014-11-01T00:24:00Z,27.7650,-82.6490,10.0,1.54,267.11,3.92,'1111122,1111122,1111122' 
COMPS,ioos:station:USF.COMPS:CAM:1,2014-11-01T00:30:00Z,27.7650,-82.6490,10.0,1.82,273.97,3.92,'1111122,1111122,1111122' 
COMPS,ioos:station:USF.COMPS:CAM:1,2014-11-01T00:36:00Z,27.7650,-82.6490,10.0,2.48,274.38,4.01,'1111122,1111122,1111122' 
COMPS,ioos:station:USF.COMPS:CAM:1,2014-11-01T00:42:00Z,27.7650,-82.6490,10.0,1.43,263.22,2.84,'1111122,1111122,1111122' 
COMPS,ioos:station:USF.COMPS:CAM:1,2014-11-01T00:48:00Z,27.7650,-82.6490,10.0,1.77,264.99,4.6,'1111122,1111122,1111122' 
COMPS,ioos:station:USF.COMPS:CAM:1,2014-11-01T00:54:00Z,27.7650,-82.6490,10.0,2.7,272.5,3.92,'1111122,1111122,1111122' 
COMPS,ioos:station:USF.COMPS:CAM:1,2014-11-01T01:00:00Z,27.7650,-82.6490,10.0,2.39,275.73,3.72,'1111122,1111122,1111122' 
COMPS,ioos:station:USF.COMPS:CAM:1,2014-11-01T01:06:00Z,27.7650,-82.6490,10.0,2.19,261.8,4.9,'1111122,1111122,1111122' 
COMPS,ioos:station:USF.COMPS:CAM:1,2014-11-01T01:12:00Z,27.7650,-82.6490,10.0,1.21,263.62,2.74,'1111122,1111122,1111122' 
COMPS,ioos:station:USF.COMPS:CAM:1,2014-11-01T01:18:00Z,27.7650,-82.6490,10.0,2.34,271.26,4.8,'1111122,1111122,1111122' 
COMPS,ioos:station:USF.COMPS:CAM:1,2014-11-01T01:24:00Z,27.7650,-82.6490,10.0,2.39,269.6,3.82,'1111122,1111122,1111122' 
COMPS,ioos:station:USF.COMPS:CAM:1,2014-11-01T01:30:00Z,27.7650,-82.6490,10.0,2.45,266.38,4.31,'1111122,1111122,1111122' 
COMPS,ioos:station:USF.COMPS:CAM:1,2014-11-01T01:36:00Z,27.7650,-82.6490,10.0,2.61,271.6,5.48,'1111122,1111122,1111122' 
COMPS,ioos:station:USF.COMPS:CAM:1,2014-11-01T01:42:00Z,27.7650,-82.6490,10.0,2.43,267.64,3.72,'1111122,1111122,1111122' 
COMPS,ioos:station:USF.COMPS:CAM:1,2014-11-01T01:48:00Z,27.7650,-82.6490,10.0,1.96,270.82,4.11,'1111122,1111122,1111122' 
COMPS,ioos:station:USF.COMPS:CAM:1,2014-11-01T01:54:00Z,27.7650,-82.6490,10.0,2.38,271.29,3.62,'1111122,1111122,1111122' 
COMPS,ioos:station:USF.COMPS:CAM:1,2014-11-01T02:00:00Z,27.7650,-82.6490,10.0,2.28,270.3,3.72,'1111122,1111122,1111122' 
COMPS,ioos:station:USF.COMPS:CAM:1,2014-11-01T02:06:00Z,27.7650,-82.6490,10.0,2.39,272.23,4.01,'1111122,1111122,1111122' 
COMPS,ioos:station:USF.COMPS:CAM:1,2014-11-01T02:12:00Z,27.7650,-82.6490,10.0,2.09,266.67,3.52,'1111122,1111122,1111122' 
COMPS,ioos:station:USF.COMPS:CAM:1,2014-11-01T02:18:00Z,27.7650,-82.6490,10.0,2.0,268.58,3.72,'1111122,1111122,1111122' 
COMPS,ioos:station:USF.COMPS:CAM:1,2014-11-01T02:24:00Z,27.7650,-82.6490,10.0,1.26,261.85,3.43,'1111122,1111122,1111122' 
COMPS,ioos:station:USF.COMPS:CAM:1,2014-11-01T02:30:00Z,27.7650,-82.6490,10.0,1.51,264.69,3.33,'1111122,1111122,1111122' 
COMPS,ioos:station:USF.COMPS:CAM:1,2014-11-01T02:36:00Z,27.7650,-82.6490,10.0,0.89,258.99,2.05,'1111122,1111122,1111122' 
COMPS,ioos:station:USF.COMPS:CAM:1,2014-11-01T02:42:00Z,27.7650,-82.6490,10.0,1.35,257.89,2.94,'1111122,1111122,1111122' 
COMPS,ioos:station:USF.COMPS:CAM:1,2014-11-01T02:48:00Z,27.7650,-82.6490,10.0,0.75,242.39,2.64,'1111122,1111122,1111122' 
COMPS,ioos:station:USF.COMPS:CAM:1,2014-11-01T02:54:00Z,27.7650,-82.6490,10.0,0.86,251.85,2.15,'1111122,1111122,1111122' 
COMPS,ioos:station:USF.COMPS:CAM:1,2014-11-01T03:00:00Z,27.7650,-82.6490,10.0,0.69,246.21,1.37,'1111122,1111122,1111122' 
COMPS,ioos:station:USF.COMPS:CAM:1,2014-11-01T03:06:00Z,27.7650,-82.6490,10.0,0.54,238.69,1.76,'1111122,1111122,1111122' 
COMPS,ioos:station:USF.COMPS:CAM:1,2014-11-01T03:12:00Z,27.7650,-82.6490,10.0,0.11,228.98,0.88,'1111122,1111122,1111122' 
COMPS,ioos:station:USF.COMPS:CAM:1,2014-11-01T03:18:00Z,27.7650,-82.6490,10.0,0.43,242.49,1.96,'1111122,1111122,1111122' 
COMPS,ioos:station:USF.COMPS:CAM:1,2014-11-01T03:24:00Z,27.7650,-82.6490,10.0,0.0,220.03,0.29,'1114422,1111122,1111122' 
COMPS,ioos:station:USF.COMPS:CAM:1,2014-11-01T03:30:00Z,27.7650,-82.6490,10.0,0.02,222.74,0.49,'1111122,1111122,1111122' 
COMPS,ioos:station:USF.COMPS:CAM:1,2014-11-01T03:36:00Z,27.7650,-82.6490,10.0,0.14,210.93,0.68,'1111122,1111122,1111122' 
COMPS,ioos:station:USF.COMPS:CAM:1,2014-11-01T03:42:00Z,27.7650,-82.6490,10.0,0.18,217.71,0.58,'1111122,1111122,1111122' 
COMPS,ioos:station:USF.COMPS:CAM:1,2014-11-01T03:48:00Z,27.7650,-82.6490,10.0,0.08,223.94,0.49,'1111122,1111122,1111122' 
COMPS,ioos:station:USF.COMPS:CAM:1,2014-11-01T03:54:00Z,27.7650,-82.6490,10.0,0.05,235.73,0.68,'1111122,1111122,1111122' 
COMPS,ioos:station:USF.COMPS:CAM:1,2014-11-01T04:00:00Z,27.7650,-82.6490,10.0,0.87,256.9,2.64,'1111122,1111122,1111122' 
COMPS,ioos:station:USF.COMPS:CAM:1,2014-11-01T04:06:00Z,27.7650,-82.6490,10.0,0.6,243.52,2.05,'1111122,1111122,1111122' 
COMPS,ioos:station:USF.COMPS:CAM:1,2014-11-01T04:12:00Z,27.7650,-82.6490,10.0,0.43,242.31,1.17,'1111122,1111122,1111122' 
COMPS,ioos:station:USF.COMPS:CAM:1,2014-11-01T04:18:00Z,27.7650,-82.6490,10.0,0.72,253.14,2.35,'1111122,1111122,1111122' 
COMPS,ioos:station:USF.COMPS:CAM:1,2014-11-01T04:24:00Z,27.7650,-82.6490,10.0,0.99,265.26,2.15,'1111122,1111122,1111122' 
COMPS,ioos:station:USF.COMPS:CAM:1,2014-11-01T04:30:00Z,27.7650,-82.6490,10.0,0.58,241.72,1.86,'1111122,1111122,1111122' 
COMPS,ioos:station:USF.COMPS:CAM:1,2014-11-01T04:36:00Z,27.7650,-82.6490,10.0,0.58,243.81,2.05,'1111122,1111122,1111122' 
COMPS,ioos:station:USF.COMPS:CAM:1,2014-11-01T04:42:00Z,27.7650,-82.6490,10.0,0.87,254.18,1.66,'1111122,1111122,1111122' 
COMPS,ioos:station:USF.COMPS:CAM:1,2014-11-01T04:48:00Z,27.7650,-82.6490,10.0,0.43,242.95,1.27,'1111122,1111122,1111122' 
COMPS,ioos:station:USF.COMPS:CAM:1,2014-11-01T04:54:00Z,27.7650,-82.6490,10.0,1.09,254.33,2.94,'1111122,1111122,1111122' 
COMPS,ioos:station:USF.COMPS:CAM:1,2014-11-01T05:00:00Z,27.7650,-82.6490,10.0,1.03,248.99,2.54,'1111122,1111122,1111122' 
COMPS,ioos:station:USF.COMPS:CAM:1,2014-11-01T05:06:00Z,27.7650,-82.6490,10.0,0.83,240.07,2.15,'1111122,1111122,1111122' 
COMPS,ioos:station:USF.COMPS:CAM:1,2014-11-01T05:12:00Z,27.7650,-82.6490,10.0,0.5,236.58,1.07,'1111122,1111122,1111122' 
COMPS,ioos:station:USF.COMPS:CAM:1,2014-11-01T05:18:00Z,27.7650,-82.6490,10.0,0.72,242.74,1.27,'1111122,1111122,1111122' 
COMPS,ioos:station:USF.COMPS:CAM:1,2014-11-01T05:24:00Z,27.7650,-82.6490,10.0,0.7,240.36,1.27,'1111122,1111122,1111122' 
COMPS,ioos:station:USF.COMPS:CAM:1,2014-11-01T05:30:00Z,27.7650,-82.6490,10.0,0.69,246.88,1.96,'1111122,1111122,1111122' 
COMPS,ioos:station:USF.COMPS:CAM:1,2014-11-01T05:36:00Z,27.7650,-82.6490,10.0,0.74,251.02,1.47,'1111122,1111122,1111122' 
COMPS,ioos:station:USF.COMPS:CAM:1,2014-11-01T05:42:00Z,27.7650,-82.6490,10.0,0.86,249.87,2.64,'1111122,1111122,1111122' 
COMPS,ioos:station:USF.COMPS:CAM:1,2014-11-01T05:48:00Z,27.7650,-82.6490,10.0,1.03,253.83,3.23,'1111122,1111122,1111122' 
COMPS,ioos:station:USF.COMPS:CAM:1,2014-11-01T05:54:00Z,27.7650,-82.6490,10.0,0.61,251.6,1.37,'1111122,1111122,1111122' 
COMPS,ioos:station:USF.COMPS:CAM:1,2014-11-01T13:00:00Z,27.7650,-82.6490,10.0,5.71,268.85,8.33,'1111122,1111122,1111122' 
COMPS,ioos:station:USF.COMPS:CAM:1,2014-11-01T13:06:00Z,27.7650,-82.6490,10.0,4.08,267.52,7.25,'1111122,1111122,1111122' 
COMPS,ioos:station:USF.COMPS:CAM:1,2014-11-01T13:12:00Z,27.7650,-82.6490,10.0,5.48,274.16,9.11,'1111122,1111122,1111122' 
COMPS,ioos:station:USF.COMPS:CAM:1,2014-11-01T13:18:00Z,27.7650,-82.6490,10.0,6.41,268.12,11.95,'1111122,1111122,1111122' 
COMPS,ioos:station:USF.COMPS:CAM:1,2014-11-01T13:24:00Z,27.7650,-82.6490,10.0,5.54,273.49,8.72,'1111122,1111122,1111122' 
COMPS,ioos:station:USF.COMPS:CAM:1,2014-11-01T13:30:00Z,27.7650,-82.6490,10.0,6.68,284.95,12.15,'1111122,1111122,1111122' 
COMPS,ioos:station:USF.COMPS:CAM:1,2014-11-01T13:36:00Z,27.7650,-82.6490,10.0,5.27,286.86,9.7,'1111122,1111122,1111122' 
COMPS,ioos:station:USF.COMPS:CAM:1,2014-11-01T13:42:00Z,27.7650,-82.6490,10.0,5.41,280.61,7.83,'1111122,1111122,1111122' 
COMPS,ioos:station:USF.COMPS:CAM:1,2014-11-01T13:48:00Z,27.7650,-82.6490,10.0,5.43,273.02,9.8,'1111122,1111122,1111122' 
COMPS,ioos:station:USF.COMPS:CAM:1,2014-11-01T13:54:00Z,27.7650,-82.6490,10.0,6.57,269.28,11.76,'1111122,1111122,1111122' 
COMPS,ioos:station:USF.COMPS:CAM:1,2014-11-01T14:00:00Z,27.7650,-82.6490,10.0,6.03,275.33,10.38,'1111122,1111122,1111122' 
COMPS,ioos:station:USF.COMPS:CAM:1,2014-11-01T14:06:00Z,27.7650,-82.6490,10.0,5.67,279.35,9.89,'1111122,1111122,1111122' 
COMPS,ioos:station:USF.COMPS:CAM:1,2014-11-01T14:12:00Z,27.7650,-82.6490,10.0,4.75,273.52,8.33,'1111122,1111122,1111122' 
COMPS,ioos:station:USF.COMPS:CAM:1,2014-11-01T14:18:00Z,27.7650,-82.6490,10.0,6.25,273.75,10.87,'1111122,1111122,1111122' 
COMPS,ioos:station:USF.COMPS:CAM:1,2014-11-01T14:24:00Z,27.7650,-82.6490,10.0,5.68,270.86,9.21,'1111122,1111122,1111122' 
COMPS,ioos:station:USF.COMPS:CAM:1,2014-11-01T14:30:00Z,27.7650,-82.6490,10.0,6.55,275.59,12.15,'1111122,1111122,1111122' 
COMPS,ioos:station:USF.COMPS:CAM:1,2014-11-01T14:36:00Z,27.7650,-82.6490,10.0,6.51,276.44,10.97,'1111122,1111122,1111122' 
COMPS,ioos:station:USF.COMPS:CAM:1,2014-11-01T14:42:00Z,27.7650,-82.6490,10.0,5.28,277.36,9.21,'1111122,1111122,1111122' 
COMPS,ioos:station:USF.COMPS:CAM:1,2014-11-01T14:48:00Z,27.7650,-82.6490,10.0,7.13,272.4,10.97,'1111122,1111122,1111122' 
COMPS,ioos:station:USF.COMPS:CAM:1,2014-11-01T14:54:00Z,27.7650,-82.6490,10.0,5.62,287.41,11.17,'1111122,1111122,1111122' 
COMPS,ioos:station:USF.COMPS:CAM:1,2014-11-01T15:00:00Z,27.7650,-82.6490,10.0,6.04,271.99,12.54,'1111122,1111122,1111122' 
COMPS,ioos:station:USF.COMPS:CAM:1,2014-11-01T15:06:00Z,27.7650,-82.6490,10.0,4.49,292.13,7.83,'1111122,1111122,1111122' 
COMPS,ioos:station:USF.COMPS:CAM:1,2014-11-01T15:12:00Z,27.7650,-82.6490,10.0,4.24,286.55,8.72,'1111122,1111122,1111122' 
COMPS,ioos:station:USF.COMPS:CAM:1,2014-11-01T15:18:00Z,27.7650,-82.6490,10.0,4.71,290.97,10.97,'1111122,1111122,1111122' 
COMPS,ioos:station:USF.COMPS:CAM:1,2014-11-01T15:24:00Z,27.7650,-82.6490,10.0,5.37,286.21,8.23,'1111122,1111122,1111122' 
COMPS,ioos:station:USF.COMPS:CAM:1,2014-11-01T15:30:00Z,27.7650,-82.6490,10.0,4.95,285.47,8.03,'1111122,1111122,1111122' 
COMPS,ioos:station:USF.COMPS:CAM:1,2014-11-01T15:36:00Z,27.7650,-82.6490,10.0,5.3,274.55,10.38,'1111122,1111122,1111122' 
COMPS,ioos:station:USF.COMPS:CAM:1,2014-11-01T15:42:00Z,27.7650,-82.6490,10.0,5.35,279.95,10.48,'1111122,1111122,1111122' 
COMPS,ioos:station:USF.COMPS:CAM:1,2014-11-01T15:48:00Z,27.7650,-82.6490,10.0,5.07,274.15,10.29,'1111122,1111122,1111122' 
COMPS,ioos:station:USF.COMPS:CAM:1,2014-11-01T15:54:00Z,27.7650,-82.6490,10.0,5.27,286.58,8.52,'1111122,1111122,1111122' 
COMPS,ioos:station:USF.COMPS:CAM:1,2014-11-01T16:00:00Z,27.7650,-82.6490,10.0,4.32,270.85,8.23,'1111122,1111122,1111122' 
COMPS,ioos:station:USF.COMPS:CAM:1,2014-11-01T16:06:00Z,27.7650,-82.6490,10.0,5.58,275.15,10.97,'1111122,1111122,1111122' 
COMPS,ioos:station:USF.COMPS:CAM:1,2014-11-01T16:12:00Z,27.7650,-82.6490,10.0,5.44,278.72,9.11,'1111122,1111122,1111122' 
COMPS,ioos:station:USF.COMPS:CAM:1,2014-11-01T16:18:00Z,27.7650,-82.6490,10.0,5.71,277.5,10.68,'1111122,1111122,1111122' 
COMPS,ioos:station:USF.COMPS:CAM:1,2014-11-01T16:24:00Z,27.7650,-82.6490,10.0,5.18,280.37,9.8,'1111122,1111122,1111122' 
COMPS,ioos:station:USF.COMPS:CAM:1,2014-11-01T16:30:00Z,27.7650,-82.6490,10.0,6.13,272.98,9.5,'1111122,1111122,1111122' 
COMPS,ioos:station:USF.COMPS:CAM:1,2014-11-01T16:36:00Z,27.7650,-82.6490,10.0,5.91,267.46,10.78,'1111122,1111122,1111122' 
COMPS,ioos:station:USF.COMPS:CAM:1,2014-11-01T16:42:00Z,27.7650,-82.6490,10.0,7.11,276.04,13.13,'1111122,1111122,1111122' 
COMPS,ioos:station:USF.COMPS:CAM:1,2014-11-01T16:48:00Z,27.7650,-82.6490,10.0,6.34,277.12,10.09,'1111122,1111122,1111122' 
COMPS,ioos:station:USF.COMPS:CAM:1,2014-11-01T16:54:00Z,27.7650,-82.6490,10.0,6.27,284.94,10.97,'1111122,1111122,1111122' 
COMPS,ioos:station:USF.COMPS:CAM:1,2014-11-01T17:00:00Z,27.7650,-82.6490,10.0,7.09,274.14,12.05,'1111122,1111122,1111122' 
COMPS,ioos:station:USF.COMPS:CAM:1,2014-11-01T17:06:00Z,27.7650,-82.6490,10.0,5.86,275.04,8.82,'1111122,1111122,1111122' 
COMPS,ioos:station:USF.COMPS:CAM:1,2014-11-01T17:12:00Z,27.7650,-82.6490,10.0,4.43,288.35,7.35,'1111122,1111122,1111122' 
COMPS,ioos:station:USF.COMPS:CAM:1,2014-11-01T17:18:00Z,27.7650,-82.6490,10.0,4.81,282.65,11.46,'1111122,1111122,1111122' 
COMPS,ioos:station:USF.COMPS:CAM:1,2014-11-01T17:24:00Z,27.7650,-82.6490,10.0,5.81,278.9,10.87,'1111122,1111122,1111122' 
COMPS,ioos:station:USF.COMPS:CAM:1,2014-11-01T17:30:00Z,27.7650,-82.6490,10.0,5.99,276.51,11.46,'1111122,1111122,1111122' 
COMPS,ioos:station:USF.COMPS:CAM:1,2014-11-01T17:36:00Z,27.7650,-82.6490,10.0,6.18,274.68,9.8,'1111122,1111122,1111122' 
COMPS,ioos:station:USF.COMPS:CAM:1,2014-11-01T17:42:00Z,27.7650,-82.6490,10.0,6.43,277.19,10.29,'1111122,1111122,1111122' 
COMPS,ioos:station:USF.COMPS:CAM:1,2014-11-01T17:48:00Z,27.7650,-82.6490,10.0,5.19,270.51,10.38,'1111122,1111122,1111122' 
COMPS,ioos:station:USF.COMPS:CAM:1,2014-11-01T17:54:00Z,27.7650,-82.6490,10.0,5.45,281.67,8.52,'1111122,1111122,1111122' 
COMPS,ioos:station:USF.COMPS:CAM:1,2014-11-01T18:00:00Z,27.7650,-82.6490,10.0,3.57,267.0,7.15,'1111122,1111122,1111122' 
COMPS,ioos:station:USF.COMPS:CAM:1,2014-11-01T18:06:00Z,27.7650,-82.6490,10.0,5.36,276.65,10.38,'1111122,1111122,1111122' 
COMPS,ioos:station:USF.COMPS:CAM:1,2014-11-01T18:12:00Z,27.7650,-82.6490,10.0,5.78,278.07,9.6,'1111122,1111122,1111122' 
COMPS,ioos:station:USF.COMPS:CAM:1,2014-11-01T18:18:00Z,27.7650,-82.6490,10.0,5.46,272.51,8.42,'1111122,1111122,1111122' 
COMPS,ioos:station:USF.COMPS:CAM:1,2014-11-01T18:24:00Z,27.7650,-82.6490,10.0,4.36,258.56,9.3,'1111122,1111122,1111122' 
COMPS,ioos:station:USF.COMPS:CAM:1,2014-11-01T18:30:00Z,27.7650,-82.6490,10.0,5.95,278.1,9.5,'1111122,1111122,1111122' 
COMPS,ioos:station:USF.COMPS:CAM:1,2014-11-01T18:36:00Z,27.7650,-82.6490,10.0,6.9,274.29,11.17,'1111122,1111122,1111122' 
COMPS,ioos:station:USF.COMPS:CAM:1,2014-11-01T18:42:00Z,27.7650,-82.6490,10.0,7.22,278.33,10.29,'1111122,1111122,1111122' 
COMPS,ioos:station:USF.COMPS:CAM:1,2014-11-01T18:48:00Z,27.7650,-82.6490,10.0,6.69,274.81,9.8,'1111122,1111122,1111122' 
COMPS,ioos:station:USF.COMPS:CAM:1,2014-11-01T18:54:00Z,27.7650,-82.6490,10.0,5.97,274.14,11.17,'1111122,1111122,1111122' 
COMPS,ioos:station:USF.COMPS:CAM:1,2014-11-01T19:00:00Z,27.7650,-82.6490,10.0,4.57,274.74,9.6,'1111122,1111122,1111122' 
COMPS,ioos:station:USF.COMPS:CAM:1,2014-11-01T19:06:00Z,27.7650,-82.6490,10.0,5.28,273.17,8.91,'1111122,1111122,1111122' 
COMPS,ioos:station:USF.COMPS:CAM:1,2014-11-01T19:12:00Z,27.7650,-82.6490,10.0,6.69,275.05,13.03,'1111122,1111122,1111122' 
COMPS,ioos:station:USF.COMPS:CAM:1,2014-11-01T19:18:00Z,27.7650,-82.6490,10.0,6.16,272.85,9.4,'1111122,1111122,1111122' 
COMPS,ioos:station:USF.COMPS:CAM:1,2014-11-01T19:24:00Z,27.7650,-82.6490,10.0,5.08,268.91,9.99,'1111122,1111122,1111122' 
COMPS,ioos:station:USF.COMPS:CAM:1,2014-11-01T19:30:00Z,27.7650,-82.6490,10.0,6.16,272.47,10.97,'1111122,1111122,1111122' 
COMPS,ioos:station:USF.COMPS:CAM:1,2014-11-01T19:36:00Z,27.7650,-82.6490,10.0,4.51,262.95,8.82,'1111122,1111122,1111122' 
COMPS,ioos:station:USF.COMPS:CAM:1,2014-11-01T19:42:00Z,27.7650,-82.6490,10.0,7.0,276.96,11.36,'1111122,1111122,1111122' 
COMPS,ioos:station:USF.COMPS:CAM:1,2014-11-01T19:48:00Z,27.7650,-82.6490,10.0,6.6,276.03,10.97,'1111122,1111122,1111122' 
COMPS,ioos:station:USF.COMPS:CAM:1,2014-11-01T19:54:00Z,27.7650,-82.6490,10.0,6.88,274.42,10.38,'1111122,1111122,1111122' 
COMPS,ioos:station:USF.COMPS:CAM:1,2014-11-01T20:00:00Z,27.7650,-82.6490,10.0,6.64,278.15,11.27,'1111122,1111122,1111122' 
COMPS,ioos:station:USF.COMPS:CAM:1,2014-11-01T20:06:00Z,27.7650,-82.6490,10.0,6.45,276.69,10.48,'1111122,1111122,1111122' 
COMPS,ioos:station:USF.COMPS:CAM:1,2014-11-01T20:12:00Z,27.7650,-82.6490,10.0,6.51,275.02,10.87,'1111122,1111122,1111122' 
COMPS,ioos:station:USF.COMPS:CAM:1,2014-11-01T20:18:00Z,27.7650,-82.6490,10.0,6.38,278.8,11.17,'1111122,1111122,1111122' 
COMPS,ioos:station:USF.COMPS:CAM:1,2014-11-01T20:24:00Z,27.7650,-82.6490,10.0,5.16,272.94,10.29,'1111122,1111122,1111122' 
COMPS,ioos:station:USF.COMPS:CAM:1,2014-11-01T20:30:00Z,27.7650,-82.6490,10.0,6.75,273.08,11.46,'1111122,1111122,1111122' 
COMPS,ioos:station:USF.COMPS:CAM:1,2014-11-01T20:36:00Z,27.7650,-82.6490,10.0,7.01,274.47,11.27,'1111122,1111122,1111122' 
COMPS,ioos:station:USF.COMPS:CAM:1,2014-11-01T20:42:00Z,27.7650,-82.6490,10.0,5.78,270.46,10.68,'1111122,1111122,1111122' 
COMPS,ioos:station:USF.COMPS:CAM:1,2014-11-01T20:48:00Z,27.7650,-82.6490,10.0,5.91,282.03,12.64,'1111122,1111122,1111122' 
COMPS,ioos:station:USF.COMPS:CAM:1,2014-11-01T20:54:00Z,27.7650,-82.6490,10.0,5.4,270.95,9.01,'1111122,1111122,1111122' 
COMPS,ioos:station:USF.COMPS:CAM:1,2014-11-01T21:00:00Z,27.7650,-82.6490,10.0,4.46,276.37,7.35,'1111122,1111122,1111122' 
COMPS,ioos:station:USF.COMPS:CAM:1,2014-11-01T21:06:00Z,27.7650,-82.6490,10.0,5.05,282.9,10.38,'1111122,1111122,1111122' 
COMPS,ioos:station:USF.COMPS:CAM:1,2014-11-01T21:12:00Z,27.7650,-82.6490,10.0,5.77,277.25,9.3,'1111122,1111122,1111122' 
COMPS,ioos:station:USF.COMPS:CAM:1,2014-11-01T21:18:00Z,27.7650,-82.6490,10.0,5.61,275.0,10.68,'1111122,1111122,1111122' 
COMPS,ioos:station:USF.COMPS:CAM:1,2014-11-01T21:24:00Z,27.7650,-82.6490,10.0,6.47,272.03,10.48,'1111122,1111122,1111122' 
COMPS,ioos:station:USF.COMPS:CAM:1,2014-11-01T21:30:00Z,27.7650,-82.6490,10.0,6.16,272.58,10.19,'1111122,1111122,1111122' 
COMPS,ioos:station:USF.COMPS:CAM:1,2014-11-01T21:36:00Z,27.7650,-82.6490,10.0,6.11,275.16,9.5,'1111122,1111122,1111122' 
COMPS,ioos:station:USF.COMPS:CAM:1,2014-11-01T21:42:00Z,27.7650,-82.6490,10.0,5.87,273.42,9.21,'1111122,1111122,1111122' 
COMPS,ioos:station:USF.COMPS:CAM:1,2014-11-01T21:48:00Z,27.7650,-82.6490,10.0,6.56,272.52,13.13,'1111122,1111122,1111122' 
COMPS,ioos:station:USF.COMPS:CAM:1,2014-11-01T21:54:00Z,27.7650,-82.6490,10.0,4.18,269.65,7.83,'1111122,1111122,1111122' 
COMPS,ioos:station:USF.COMPS:CAM:1,2014-11-02T12:00:00Z,27.7650,-82.6490,10.0,1.68,347.31,3.52,'1111122,1111122,1111122' 
COMPS,ioos:station:USF.COMPS:CAM:1,2014-11-02T12:06:00Z,27.7650,-82.6490,10.0,1.42,355.3,3.62,'1111122,1111122,1111122' 
COMPS,ioos:station:USF.COMPS:CAM:1,2014-11-02T12:12:00Z,27.7650,-82.6490,10.0,1.29,339.3,2.35,'1111122,1111122,1111122' 
COMPS,ioos:station:USF.COMPS:CAM:1,2014-11-02T12:18:00Z,27.7650,-82.6490,10.0,1.65,335.91,4.5,'1111122,1111122,1111122' 
COMPS,ioos:station:USF.COMPS:CAM:1,2014-11-02T12:24:00Z,27.7650,-82.6490,10.0,1.82,351.78,4.7,'1111122,1111122,1111122' 
COMPS,ioos:station:USF.COMPS:CAM:1,2014-11-02T12:30:00Z,27.7650,-82.6490,10.0,1.36,331.71,3.13,'1111122,1111122,1111122' 
COMPS,ioos:station:USF.COMPS:CAM:1,2014-11-02T12:36:00Z,27.7650,-82.6490,10.0,1.67,325.18,4.21,'1111122,1111122,1111122' 
COMPS,ioos:station:USF.COMPS:CAM:1,2014-11-02T12:42:00Z,27.7650,-82.6490,10.0,2.43,345.87,5.39,'1111122,1111122,1111122' 
COMPS,ioos:station:USF.COMPS:CAM:1,2014-11-02T12:48:00Z,27.7650,-82.6490,10.0,2.31,342.45,4.7,'1111122,1111122,1111122' 
COMPS,ioos:station:USF.COMPS:CAM:1,2014-11-02T12:54:00Z,27.7650,-82.6490,10.0,2.22,0.79,4.9,'1111122,1111122,1111122' 
COMPS,ioos:station:USF.COMPS:CAM:1,2014-11-02T13:00:00Z,27.7650,-82.6490,10.0,2.4,341.38,5.48,'1111122,1111122,1111122' 
COMPS,ioos:station:USF.COMPS:CAM:1,2014-11-02T13:06:00Z,27.7650,-82.6490,10.0,2.66,346.54,4.41,'1111122,1111122,1111122' 
COMPS,ioos:station:USF.COMPS:CAM:1,2014-11-02T13:12:00Z,27.7650,-82.6490,10.0,1.96,354.01,4.5,'1111122,1111122,1111122' 
COMPS,ioos:station:USF.COMPS:CAM:1,2014-11-02T13:18:00Z,27.7650,-82.6490,10.0,2.21,310.6,4.31,'1111122,1111122,1111122' 
COMPS,ioos:station:USF.COMPS:CAM:1,2014-11-02T13:24:00Z,27.7650,-82.6490,10.0,1.85,320.82,4.8,'1111122,1111122,1111122' 
COMPS,ioos:station:USF.COMPS:CAM:1,2014-11-02T13:30:00Z,27.7650,-82.6490,10.0,2.31,294.73,4.21,'1111122,1111122,1111122' 
COMPS,ioos:station:USF.COMPS:CAM:1,2014-11-02T13:36:00Z,27.7650,-82.6490,10.0,1.98,335.44,3.43,'1111122,1111122,1111122' 
COMPS,ioos:station:USF.COMPS:CAM:1,2014-11-02T13:42:00Z,27.7650,-82.6490,10.0,2.13,352.87,4.21,'1111122,1111122,1111122' 
COMPS,ioos:station:USF.COMPS:CAM:1,2014-11-02T13:48:00Z,27.7650,-82.6490,10.0,1.84,12.93,4.01,'1111122,1111122,1111122' 
COMPS,ioos:station:USF.COMPS:CAM:1,2014-11-02T13:54:00Z,27.7650,-82.6490,10.0,2.45,304.21,5.19,'1111122,1111122,1111122' 
COMPS,ioos:station:USF.COMPS:CAM:1,2014-11-02T14:00:00Z,27.7650,-82.6490,10.0,2.16,327.02,3.52,'1111122,1111122,1111122' 
COMPS,ioos:station:USF.COMPS:CAM:1,2014-11-02T14:06:00Z,27.7650,-82.6490,10.0,2.27,307.7,4.8,'1111122,1111122,1111122' 
COMPS,ioos:station:USF.COMPS:CAM:1,2014-11-02T14:12:00Z,27.7650,-82.6490,10.0,1.85,341.96,4.11,'1111122,1111122,1111122' 
COMPS,ioos:station:USF.COMPS:CAM:1,2014-11-02T14:18:00Z,27.7650,-82.6490,10.0,2.46,297.94,4.5,'1111122,1111122,1111122' 
COMPS,ioos:station:USF.COMPS:CAM:1,2014-11-02T14:24:00Z,27.7650,-82.6490,10.0,2.55,296.66,4.7,'1111122,1111122,1111122' 
COMPS,ioos:station:USF.COMPS:CAM:1,2014-11-02T14:30:00Z,27.7650,-82.6490,10.0,2.01,294.06,4.6,'1111122,1111122,1111122' 
COMPS,ioos:station:USF.COMPS:CAM:1,2014-11-02T14:36:00Z,27.7650,-82.6490,10.0,1.54,339.33,2.45,'1111122,1111122,1111122' 
COMPS,ioos:station:USF.COMPS:CAM:1,2014-11-02T14:42:00Z,27.7650,-82.6490,10.0,1.95,300.15,3.52,'1111122,1111122,1111122' 
COMPS,ioos:station:USF.COMPS:CAM:1,2014-11-02T14:48:00Z,27.7650,-82.6490,10.0,1.09,21.24,2.35,'1111122,1111122,1111122' 
COMPS,ioos:station:USF.COMPS:CAM:1,2014-11-02T14:54:00Z,27.7650,-82.6490,10.0,2.41,287.88,4.7,'1111122,1111122,1111122' 
COMPS,ioos:station:USF.COMPS:CAM:1,2014-11-02T15:00:00Z,27.7650,-82.6490,10.0,1.42,14.67,3.62,'1111122,1111122,1111122' 
COMPS,ioos:station:USF.COMPS:CAM:1,2014-11-02T15:06:00Z,27.7650,-82.6490,10.0,1.26,14.12,2.64,'1111122,1111122,1111122' 
COMPS,ioos:station:USF.COMPS:CAM:1,2014-11-02T15:12:00Z,27.7650,-82.6490,10.0,1.73,313.12,3.43,'1111122,1111122,1111122' 
COMPS,ioos:station:USF.COMPS:CAM:1,2014-11-02T15:18:00Z,27.7650,-82.6490,10.0,1.41,358.65,2.64,'1111122,1111122,1111122' 
COMPS,ioos:station:USF.COMPS:CAM:1,2014-11-02T15:24:00Z,27.7650,-82.6490,10.0,1.66,355.13,3.13,'1111122,1111122,1111122' 
COMPS,ioos:station:USF.COMPS:CAM:1,2014-11-02T15:30:00Z,27.7650,-82.6490,10.0,1.65,357.44,3.33,'1111122,1111122,1111122' 
COMPS,ioos:station:USF.COMPS:CAM:1,2014-11-02T15:36:00Z,27.7650,-82.6490,10.0,1.47,32.84,2.64,'1111122,1111122,1111122' 
COMPS,ioos:station:USF.COMPS:CAM:1,2014-11-02T15:42:00Z,27.7650,-82.6490,10.0,2.06,292.77,3.72,'1111122,1111122,1111122' 
COMPS,ioos:station:USF.COMPS:CAM:1,2014-11-02T15:48:00Z,27.7650,-82.6490,10.0,1.88,62.09,3.43,'1111122,1111122,1111122' 
COMPS,ioos:station:USF.COMPS:CAM:1,2014-11-02T15:54:00Z,27.7650,-82.6490,10.0,1.21,3.26,2.94,'1111122,1111122,1111122' 
COMPS,ioos:station:USF.COMPS:CAM:1,2014-11-02T16:00:00Z,27.7650,-82.6490,10.0,1.38,36.84,3.23,'1111122,1111122,1111122' 
COMPS,ioos:station:USF.COMPS:CAM:1,2014-11-02T16:06:00Z,27.7650,-82.6490,10.0,1.89,317.51,4.7,'1111122,1111122,1111122' 
COMPS,ioos:station:USF.COMPS:CAM:1,2014-11-02T16:12:00Z,27.7650,-82.6490,10.0,2.13,283.18,3.23,'1111122,1111122,1111122' 
COMPS,ioos:station:USF.COMPS:CAM:1,2014-11-02T16:18:00Z,27.7650,-82.6490,10.0,1.29,285.93,3.82,'1111122,1111122,1111122' 
COMPS,ioos:station:USF.COMPS:CAM:1,2014-11-02T16:24:00Z,27.7650,-82.6490,10.0,1.81,8.92,3.43,'1111122,1111122,1111122' 
COMPS,ioos:station:USF.COMPS:CAM:1,2014-11-02T16:30:00Z,27.7650,-82.6490,10.0,1.88,357.56,3.33,'1111122,1111122,1111122' 